Location: Bittkow
(50.3000°N, 19.0000°E)
Time: 01:11:46
(UTC+00:00)

ERS-2 - Visible Passes

Search period start: 24 January 2021 00:00
Search period end: 03 February 2021 00:00
Orbit: 492 x 498 km, 98.6° (Epoch: 23 January)

Date Brightness Start Highest point End Pass type
(mag) Time Alt. Az. Time Alt. Az. Time Alt. Az.
24 Jan 4.5 03:17:59 10° SE 03:19:42 22° ESE 03:19:42 22° ESE visible
24 Jan 3.3 04:51:44 10° SSW 04:54:17 24° WSW 04:54:17 24° WSW visible
24 Jan 3.8 16:15:51 10° NE 16:18:06 16° E 16:20:23 10° SE visible
24 Jan 3.0 17:50:25 29° NNW 17:51:54 48° WNW 17:55:24 10° SW visible
25 Jan 5.2 02:57:33 10° ESE 02:58:27 14° E 02:58:27 14° E visible
25 Jan 2.6 04:29:58 10° S 04:33:02 40° WSW 04:33:02 40° WSW visible
25 Jan 2.0 17:28:51 27° NNE 17:30:45 85° WNW 17:34:23 10° SSW visible
25 Jan 5.5 19:03:25 10° NW 19:03:38 10° NW 19:04:05 10° WNW visible
26 Jan 2.1 04:08:34 10° S 04:11:48 66° SSW 04:11:48 66° SSW visible
26 Jan 2.2 17:07:17 21° NNE 17:09:32 53° ESE 17:13:05 10° S visible
26 Jan 4.9 18:41:50 15° NW 18:42:42 16° WNW 18:44:58 10° W visible
27 Jan 2.7 03:47:26 10° SSE 03:50:35 55° ESE 03:50:35 55° ESE visible
27 Jan 4.0 05:23:13 10° WSW 05:24:56 13° W 05:25:10 13° W visible
27 Jan 2.9 16:45:41 14° NE 16:48:15 30° E 16:51:29 10° SSE visible
27 Jan 4.3 18:20:15 19° NNW 18:21:41 25° WNW 18:24:41 10° WSW visible
28 Jan 3.8 03:26:35 10° SE 03:29:22 33° E 03:29:22 33° E visible
28 Jan 3.3 05:00:41 10° SSW 05:03:32 21° W 05:03:57 21° W visible
28 Jan 3.6 16:24:17 10° NE 16:26:53 18° E 16:29:28 10° SE visible
28 Jan 3.3 17:58:38 21° N 18:00:36 41° WNW 18:04:02 10° SW visible
29 Jan 4.7 03:06:00 10° ESE 03:08:10 21° E 03:08:10 21° E visible
29 Jan 2.6 04:38:49 10° SSW 04:42:12 36° W 04:42:45 34° WNW visible
29 Jan 4.1 16:04:30 10° ENE 16:05:28 11° E 16:06:25 10° ESE visible
29 Jan 2.3 17:37:02 20° N 17:39:28 72° WNW 17:43:05 10° SSW visible
30 Jan 5.3 02:45:54 10° E 02:46:59 13° ENE 02:46:59 13° ENE visible
30 Jan 2.0 04:17:19 10° S 04:20:56 64° WSW 04:21:34 52° NW visible
30 Jan 2.0 17:15:24 16° NNE 17:18:16 63° ESE 17:21:51 10° S visible
30 Jan 5.1 18:49:58 12° NW 18:51:20 14° WNW 18:53:18 10° W visible
31 Jan 2.3 03:56:06 10° SSE 03:59:43 71° ENE 04:00:23 55° N visible
31 Jan 4.1 05:32:40 10° WSW 05:33:43 11° W 05:34:46 10° WNW visible
31 Jan 2.7 16:53:46 11° NNE 16:56:58 35° E 17:00:20 10° SSE visible
31 Jan 4.5 18:28:19 14° NNW 18:30:20 22° WNW 18:33:11 10° WSW visible
01 Feb 3.4 03:35:09 10° SE 03:38:34 40° ENE 03:39:15 36° NE visible
01 Feb 3.6 05:09:41 10° SW 05:12:17 18° W 05:13:50 15° WNW visible
01 Feb 3.4 16:32:48 10° NE 16:35:38 21° E 16:38:27 10° SE visible
01 Feb 3.7 18:06:40 15° N 18:09:16 35° WNW 18:12:36 10° SW visible
02 Feb 4.3 03:14:29 10° ESE 03:17:29 25° ENE 03:18:06 23° NE visible
02 Feb 2.9 04:47:40 10° SSW 04:50:56 31° W 04:52:42 20° NW visible
02 Feb 4.0 16:12:33 10° ENE 16:14:13 13° E 16:15:53 10° ESE visible
02 Feb 2.5 17:45:00 13° N 17:48:08 61° WNW 17:51:43 10° SSW visible
